This demonstration page uses our WeatherBlox Daily Observations layout. Learn more.

Left ArrowRight Arrow

Hourly Observations for May 22, 2015

Temp ( °F °C ) Dew Point ( °F °C ) Humidity (%) Winds ( mph kmh ) Pressure ( in mb ) Visibility ( mi km ) Precip ( " mm )
12:53 am 00:53 Clear 52 11.1 40 4.4 64 64 S 3 6 30.22 1023 10 16 0.00 0.00
1:53 am 01:53 Clear 51 10.6 40 4.4 66 66 Calm 30.21 1023 10 16 0.00 0.00
2:53 am 02:53 Clear 48 8.9 41 5 77 77 Calm 30.20 1023 10 16 0.00 0.00
3:53 am 03:53 Clear 47 8.3 41 5 80 80 Calm 30.19 1022 10 16 0.00 0.00
4:53 am 04:53 Clear 46 7.8 41 5 83 83 Calm 30.19 1022 10 16 0.00 0.00
5:53 am 05:53 Clear 46 7.8 40 4.4 79 79 Calm 30.17 1022 10 16 0.00 0.00
6:53 am 06:53 Sunny 46 7.8 42 5.6 86 86 Calm 30.18 1022 10 16 0.00 0.00
7:53 am 07:53 Sunny 50 10 43 6.1 77 77 S 3 6 30.20 1023 10 16 0.00 0.00
8:53 am 08:53 Mostly Cloudy 52 11.1 42 5.6 69 69 S 7 11 30.21 1023 10 16 0.00 0.00
9:53 am 09:53 Mostly Cloudy 53 11.7 44 6.7 72 72 SSE 7 11 30.21 1023 10 16 0.00 0.00
10:53 am 10:53 Cloudy 54 12.2 45 7.2 72 72 S 8 13 30.22 1023 10 16 0.00 0.00
11:53 am 11:53 Cloudy with Light Rain 52 11.1 47 8.3 83 83 S 5 7 30.23 1024 8 13 0.03 0.76
12:53 pm 12:53 Cloudy with Light Rain 53 11.7 48 8.9 83 83 SE 3 6 30.24 1024 10 16 0.02 0.51
1:53 pm 13:53 Cloudy 53 11.7 47 8.3 80 80 SE 3 6 30.22 1023 10 16 0.02 0.51
2:53 pm 14:53 Cloudy 56 13.3 49 9.4 77 77 ESE 7 11 30.20 1023 10 16 0.00 0.00
3:53 pm 15:53 Cloudy 57 13.9 45 7.2 64 64 SE 13 20 30.17 1022 10 16 0.00 0.00
4:53 pm 16:53 Cloudy with Light Rain 55 12.8 45 7.2 69 69 SE 10 17 30.18 1022 10 16 0.00 0.03
5:53 pm 17:53 Cloudy with Light Rain 55 12.8 46 7.8 72 72 ESE 9 15 30.16 1022 10 16 0.00 0.03
6:53 pm 18:53 Cloudy with Light Rain 53 11.7 50 10 89 89 SE 9 15 30.16 1021 3 4 0.00 0.03
7:11 pm 19:11 Cloudy with Light Rain 52 11.1 50 10 93 93 SE 8 13 30.15 1021 4 6 0.01 0.25
7:53 pm 19:53 Cloudy with Light Rain 53 11.7 50 10 89 89 ESE 9 15 30.14 1021 5 8 0.01 0.25
8:48 pm 20:48 Cloudy with Mist and Fog 54 12 50 10 88 88 SE 8 13 30.12 1020 4 6 0.00 0.00
8:53 pm 20:53 Cloudy with Mist and Fog 53 11.7 51 10.6 93 93 SE 9 15 30.14 1021 5 8 0.00 0.03
9:53 pm 21:53 Cloudy 53 11.7 51 10.6 93 93 SE 7 11 30.15 1021 10 16 0.00 0.00
10:17 pm 22:17 Cloudy 53 11.7 51 10.6 93 93 SE 10 17 30.12 1020 10 16 0.00 0.00
10:53 pm 22:53 Cloudy 54 12.2 51 10.6 90 90 SSE 9 15 30.15 1021 10 16 0.00 0.00
11:53 pm 23:53 Cloudy 54 12.2 51 10.6 90 90 SSE 10 17 30.15 1021 10 16 0.00 0.00

Powered by AerisWeather